Location: Pedro
(43.9050°N, 104.3408°W)
Time: 17:31:00
(UTC+00:00)

N. Korean satellite - Visible Passes

Search period start: 21 January 2022 00:00
Search period end: 31 January 2022 00:00
Orbit: 447 x 491 km, 97.3° (Epoch: 21 January)

Date Brightness Start Highest point End Pass type
(mag) Time Alt. Az. Time Alt. Az. Time Alt. Az.
21 Jan 9.6 11:24:42 10° NE 11:25:24 13° NE 11:25:24 13° NE visible
21 Jan 7.9 12:57:26 10° N 12:59:27 23° NW 12:59:27 23° NW visible
22 Jan 7.3 12:27:57 10° N 12:30:22 38° N 12:30:22 38° N visible
23 Jan 7.9 11:58:50 10° NNE 12:07:56 - S 12:01:17 36° NE visible
23 Jan 8.5 13:33:42 10° NW 13:35:06 12° WNW 13:35:21 12° WNW visible
24 Jan 9.1 11:30:11 10° NE 11:32:12 21° ENE 11:32:12 21° ENE visible
24 Jan 7.6 13:03:13 10° NNW 13:06:12 24° WNW 13:06:16 24° WNW visible
25 Jan 10.1 11:02:58 10° ENE 11:03:07 10° E 11:03:07 10° E visible
25 Jan 6.6 12:33:36 10° N 12:37:10 53° WNW 12:37:10 53° WNW visible
26 Jan 7.0 12:04:23 10° NNE 12:08:00 63° E 12:08:06 62° ESE visible
26 Jan 8.6 13:40:05 10° NW 13:40:36 10° WNW 13:41:08 10° WNW visible
27 Jan 8.7 11:35:34 10° NE 11:38:42 26° E 11:39:02 26° ESE visible
27 Jan 7.8 13:08:54 10° NNW 13:11:41 21° WNW 13:13:05 17° W visible
28 Jan 9.8 11:07:42 10° ENE 11:09:15 12° E 11:09:59 12° ESE visible
28 Jan 6.8 12:39:09 10° N 12:42:38 45° WNW 12:44:04 29° SW visible
29 Jan 6.7 12:09:48 10° NNE 12:13:27 74° ESE 12:15:02 32° S visible
30 Jan 8.4 11:40:52 10° NNE 11:44:08 31° E 11:46:04 19° SE visible
30 Jan 8.0 13:14:29 10° NNW 13:17:03 18° WNW 13:19:35 10° WSW visible
